Radiation Dose at Monitoring Post of Fukushima Daini Nuclear Power Station
Date,Time,MP-1(microSv/h),MP-2(microSv/h),MP-3(microSv/h),MP-4(microSv/h),MP-5(microSv/h),MP-6(microSv/h),MP-7(microSv/h),Wind Direction,Wind Velocity(m/s),Rain
2020/02/25,00:00,0.181,0.166,0.272,0.254,0.253,0.140,0.085,-,CALM,No
2020/02/25,00:10,0.182,0.167,0.272,0.253,0.254,0.140,0.085,-,CALM,No
2020/02/25,00:20,0.181,0.167,0.274,0.253,0.251,0.139,0.085,-,CALM,No
2020/02/25,00:30,0.180,0.167,0.273,0.254,0.252,0.140,0.085,south-southwest,0.6,No
2020/02/25,00:40,0.179,0.166,0.271,0.254,0.253,0.140,0.085,west-southwest,1.9,No
2020/02/25,00:50,0.181,0.167,0.273,0.254,0.252,0.140,0.085,west,1.3,No
2020/02/25,01:00,0.181,0.166,0.274,0.254,0.253,0.141,0.086,west-southwest,2.4,No
2020/02/25,01:10,0.180,0.166,0.272,0.254,0.252,0.140,0.085,southwest,3.6,No
2020/02/25,01:20,0.181,0.167,0.275,0.254,0.252,0.139,0.086,west-southwest,4.8,No
2020/02/25,01:30,0.182,0.166,0.273,0.255,0.254,0.139,0.085,west-southwest,4.3,No
2020/02/25,01:40,0.181,0.167,0.273,0.252,0.251,0.140,0.085,southwest,3.9,No
2020/02/25,01:50,0.180,0.167,0.275,0.254,0.252,0.138,0.085,west-southwest,4.2,No
2020/02/25,02:00,0.181,0.166,0.271,0.254,0.253,0.140,0.086,west,4.4,No
2020/02/25,02:10,0.179,0.167,0.272,0.252,0.252,0.140,0.085,west-southwest,3.9,No
2020/02/25,02:20,0.181,0.166,0.274,0.253,0.252,0.140,0.086,west,4.2,No
2020/02/25,02:30,0.182,0.165,0.273,0.253,0.253,0.139,0.086,west,3.4,No
2020/02/25,02:40,0.179,0.166,0.274,0.253,0.251,0.140,0.086,west,2.7,No
2020/02/25,02:50,0.181,0.166,0.274,0.253,0.254,0.139,0.086,north-northwest,1.9,No
2020/02/25,03:00,0.182,0.167,0.272,0.253,0.252,0.141,0.085,north-northwest,2.3,No
2020/02/25,03:10,0.181,0.167,0.273,0.253,0.253,0.140,0.085,north-northwest,1.5,No
2020/02/25,03:20,0.180,0.166,0.272,0.253,0.253,0.140,0.086,northwest,2.0,No
2020/02/25,03:30,0.181,0.166,0.273,0.254,0.251,0.140,0.086,north-northwest,2.5,No
2020/02/25,03:40,0.180,0.167,0.274,0.253,0.253,0.139,0.086,north-northwest,2.1,No
2020/02/25,03:50,0.181,0.166,0.273,0.254,0.252,0.139,0.085,northwest,2.0,No
2020/02/25,04:00,0.181,0.167,0.273,0.254,0.253,0.140,0.084,northwest,2.4,No
2020/02/25,04:10,0.181,0.167,0.274,0.254,0.252,0.139,0.086,northwest,3.5,No
2020/02/25,04:20,0.181,0.166,0.273,0.253,0.254,0.140,0.085,northwest,2.9,No
2020/02/25,04:30,0.182,0.167,0.273,0.256,0.250,0.139,0.086,west-northwest,1.8,No
2020/02/25,04:40,0.180,0.167,0.273,0.254,0.252,0.138,0.086,northwest,1.9,No
2020/02/25,04:50,0.180,0.167,0.273,0.253,0.253,0.140,0.085,northwest,1.7,No
2020/02/25,05:00,0.180,0.166,0.273,0.254,0.252,0.139,0.085,north-northeast,1.1,No
2020/02/25,05:10,0.180,0.166,0.273,0.254,0.253,0.140,0.086,north-northeast,1.3,No
2020/02/25,05:20,0.181,0.167,0.274,0.254,0.252,0.139,0.086,northwest,0.7,No
2020/02/25,05:30,0.180,0.167,0.274,0.253,0.253,0.139,0.085,-,CALM,No
2020/02/25,05:40,0.179,0.166,0.274,0.254,0.253,0.140,0.085,-,CALM,No
2020/02/25,05:50,0.181,0.167,0.274,0.253,0.253,0.140,0.086,-,CALM,No
2020/02/25,06:00,0.182,0.166,0.275,0.253,0.252,0.140,0.085,-,CALM,No
2020/02/25,06:10,0.181,0.167,0.274,0.254,0.253,0.139,0.086,west,0.9,No
2020/02/25,06:20,0.181,0.166,0.272,0.255,0.252,0.140,0.086,-,CALM,No
2020/02/25,06:30,0.181,0.166,0.274,0.254,0.254,0.140,0.085,west-northwest,1.5,No
2020/02/25,06:40,0.181,0.168,0.273,0.255,0.251,0.139,0.085,north-northwest,1.0,No
2020/02/25,06:50,0.181,0.166,0.273,0.254,0.252,0.140,0.085,-,CALM,No
2020/02/25,07:00,0.180,0.167,0.273,0.255,0.252,0.140,0.085,-,CALM,No
2020/02/25,07:10,0.180,0.167,0.275,0.254,0.252,0.141,0.086,northwest,0.8,No
2020/02/25,07:20,0.181,0.167,0.273,0.253,0.252,0.140,0.085,northwest,1.3,No
2020/02/25,07:30,0.181,0.167,0.273,0.255,0.254,0.140,0.085,north-northwest,2.2,No
2020/02/25,07:40,0.181,0.167,0.274,0.254,0.253,0.140,0.086,north-northwest,2.1,No
2020/02/25,07:50,0.181,0.167,0.274,0.252,0.252,0.139,0.085,north-northwest,2.1,No
2020/02/25,08:00,0.181,0.167,0.273,0.253,0.253,0.140,0.085,north,1.7,No
2020/02/25,08:10,0.180,0.167,0.274,0.254,0.253,0.140,0.085,east-northeast,3.1,No
2020/02/25,08:20,0.182,0.168,0.275,0.254,0.252,0.140,0.086,east-northeast,2.9,No
2020/02/25,08:30,0.181,0.166,0.273,0.253,0.253,0.140,0.085,east-northeast,3.5,No
2020/02/25,08:40,0.181,0.168,0.274,0.254,0.252,0.140,0.086,east-northeast,2.5,No
2020/02/25,08:50,0.181,0.167,0.275,0.254,0.252,0.139,0.086,east-northeast,2.4,No
2020/02/25,09:00,0.180,0.166,0.273,0.254,0.254,0.140,0.085,east-northeast,2.2,No
2020/02/25,09:10,0.180,0.166,0.273,0.253,0.251,0.139,0.085,northeast,1.0,No
2020/02/25,09:20,0.182,0.166,0.273,0.254,0.253,0.140,0.086,northeast,1.6,No
2020/02/25,09:30,0.181,0.166,0.273,0.253,0.252,0.140,0.085,northeast,1.6,No
2020/02/25,09:40,0.181,0.167,0.274,0.254,0.251,0.140,0.085,northeast,1.2,No
2020/02/25,09:50,0.181,0.166,0.273,0.254,0.254,0.140,0.085,east-northeast,0.9,No
2020/02/25,10:00,0.180,0.167,0.274,0.253,0.252,0.139,0.085,north-northeast,0.6,No
2020/02/25,10:10,0.181,0.167,0.274,0.254,0.253,0.140,0.086,east-northeast,1.7,No
2020/02/25,10:20,0.180,0.166,0.273,0.252,0.251,0.139,0.085,east-northeast,1.7,No
2020/02/25,10:30,0.181,0.166,0.273,0.255,0.253,0.140,0.085,northeast,2.4,No
2020/02/25,10:40,0.180,0.166,0.273,0.253,0.253,0.140,0.085,northeast,2.8,No
2020/02/25,10:50,0.180,0.166,0.272,0.253,0.251,0.140,0.086,northeast,2.4,No
2020/02/25,11:00,0.181,0.167,0.274,0.253,0.254,0.140,0.085,east-northeast,3.0,No
2020/02/25,11:10,0.181,0.166,0.272,0.253,0.252,0.139,0.085,east-northeast,3.2,No
2020/02/25,11:20,0.181,0.167,0.272,0.254,0.251,0.140,0.085,east-northeast,3.6,No
2020/02/25,11:30,0.182,0.166,0.273,0.253,0.252,0.140,0.085,east-northeast,3.0,No
2020/02/25,11:40,0.180,0.167,0.272,0.253,0.252,0.140,0.085,northeast,3.1,No
2020/02/25,11:50,0.182,0.166,0.274,0.253,0.253,0.138,0.086,northeast,2.9,No
2020/02/25,12:00,0.181,0.166,0.274,0.253,0.252,0.140,0.085,northeast,2.7,No
2020/02/25,12:10,0.181,0.166,0.272,0.254,0.253,0.140,0.085,northeast,3.0,No
2020/02/25,12:20,0.182,0.167,0.273,0.254,0.254,0.140,0.085,northeast,2.2,No
2020/02/25,12:30,0.180,0.165,0.273,0.254,0.252,0.140,0.085,east,2.5,No
2020/02/25,12:40,0.181,0.166,0.272,0.254,0.254,0.138,0.086,east-southeast,2.6,No
2020/02/25,12:50,0.180,0.167,0.275,0.252,0.251,0.140,0.085,southeast,1.6,No
2020/02/25,13:00,0.179,0.166,0.273,0.254,0.253,0.139,0.085,southeast,1.9,No
2020/02/25,13:10,0.180,0.167,0.274,0.254,0.252,0.139,0.085,east-southeast,2.3,No
2020/02/25,13:20,0.180,0.167,0.273,0.253,0.253,0.140,0.085,south-southeast,2.1,No
2020/02/25,13:30,0.181,0.166,0.272,0.253,0.253,0.140,0.085,east-southeast,2.9,Yes
2020/02/25,13:40,0.181,0.168,0.274,0.253,0.252,0.141,0.086,east-southeast,3.5,No
2020/02/25,13:50,0.180,0.167,0.273,0.254,0.255,0.140,0.086,southeast,3.4,Yes
2020/02/25,14:00,0.180,0.168,0.272,0.255,0.251,0.141,0.086,southeast,3.1,Yes
2020/02/25,14:10,0.181,0.167,0.273,0.255,0.253,0.141,0.087,east-southeast,3.9,Yes
2020/02/25,14:20,0.182,0.167,0.273,0.254,0.255,0.141,0.087,southeast,3.1,Yes
2020/02/25,14:30,0.182,0.168,0.274,0.256,0.254,0.141,0.086,east-southeast,3.7,Yes
2020/02/25,14:40,0.182,0.168,0.275,0.255,0.254,0.141,0.087,east-southeast,2.8,Yes
2020/02/25,14:50,0.183,0.168,0.274,0.255,0.255,0.142,0.086,east-southeast,3.6,Yes
2020/02/25,15:00,0.181,0.168,0.275,0.256,0.253,0.141,0.086,east-southeast,3.7,Yes
2020/02/25,15:10,0.182,0.167,0.274,0.254,0.255,0.141,0.086,east-southeast,3.6,Yes
2020/02/25,15:20,0.183,0.169,0.275,0.255,0.253,0.140,0.087,east-southeast,2.6,Yes
2020/02/25,15:30,0.182,0.168,0.276,0.255,0.254,0.140,0.087,east-southeast,2.3,Yes
2020/02/25,15:40,0.182,0.168,0.275,0.255,0.256,0.139,0.087,east,2.5,Yes
2020/02/25,15:50,0.182,0.168,0.275,0.256,0.254,0.141,0.087,east,2.7,Yes
2020/02/25,16:00,0.182,0.168,0.275,0.256,0.254,0.141,0.087,east-southeast,1.7,Yes
2020/02/25,16:10,0.183,0.166,0.275,0.255,0.255,0.141,0.087,east,1.7,Yes
2020/02/25,16:20,0.183,0.169,0.275,0.257,0.254,0.143,0.088,southeast,1.5,Yes
2020/02/25,16:30,0.184,0.170,0.276,0.257,0.255,0.144,0.090,southeast,2.0,Yes
2020/02/25,16:40,0.185,0.171,0.277,0.258,0.256,0.146,0.092,east-southeast,2.7,Yes
2020/02/25,16:50,0.184,0.170,0.277,0.257,0.256,0.146,0.092,east-southeast,2.0,Yes
2020/02/25,17:00,0.185,0.172,0.277,0.258,0.257,0.145,0.091,east-southeast,1.7,Yes
2020/02/25,17:10,0.187,0.172,0.278,0.261,0.258,0.146,0.092,southeast,1.9,Yes
2020/02/25,17:20,0.187,0.172,0.278,0.259,0.257,0.146,0.092,east-southeast,2.0,Yes
2020/02/25,17:30,0.187,0.172,0.279,0.258,0.258,0.147,0.092,east-southeast,1.3,Yes
2020/02/25,17:40,0.187,0.174,0.279,0.260,0.258,0.148,0.094,east-northeast,0.8,Yes
2020/02/25,17:50,0.189,0.174,0.280,0.260,0.259,0.150,0.095,south,1.5,Yes
2020/02/25,18:00,0.189,0.175,0.281,0.261,0.259,0.150,0.097,east-southeast,6.7,Yes
2020/02/25,18:10,0.190,0.177,0.280,0.261,0.258,0.151,0.096,east-southeast,4.7,Yes
2020/02/25,18:20,0.190,0.176,0.280,0.261,0.259,0.151,0.097,southeast,2.6,Yes
2020/02/25,18:30,0.191,0.177,0.280,0.262,0.261,0.151,0.098,south-southeast,4.4,Yes
2020/02/25,18:40,0.189,0.176,0.281,0.260,0.259,0.152,0.097,east-southeast,8.1,Yes
2020/02/25,18:50,0.191,0.176,0.280,0.261,0.261,0.152,0.098,south-southwest,10.0,Yes
2020/02/25,19:00,0.190,0.176,0.279,0.260,0.258,0.150,0.097,east-southeast,2.2,Yes
2020/02/25,19:10,0.189,0.175,0.277,0.260,0.259,0.150,0.096,south,0.6,Yes
2020/02/25,19:20,0.188,0.176,0.277,0.257,0.259,0.148,0.096,east-southeast,0.6,Yes
2020/02/25,19:30,0.188,0.174,0.275,0.258,0.257,0.147,0.094,-,CALM,Yes
2020/02/25,19:40,0.185,0.172,0.275,0.256,0.256,0.146,0.093,-,CALM,Yes
2020/02/25,19:50,0.185,0.172,0.274,0.256,0.256,0.146,0.092,-,CALM,Yes
2020/02/25,20:00,0.185,0.172,0.273,0.253,0.255,0.145,0.092,east,0.7,Yes
2020/02/25,20:10,0.184,0.171,0.273,0.254,0.255,0.144,0.092,-,CALM,Yes
2020/02/25,20:20,0.184,0.171,0.273,0.255,0.255,0.144,0.091,-,CALM,Yes
2020/02/25,20:30,0.184,0.171,0.273,0.253,0.255,0.144,0.092,northeast,1.4,Yes
2020/02/25,20:40,0.184,0.170,0.272,0.253,0.254,0.144,0.093,east-northeast,1.0,Yes
2020/02/25,20:50,0.183,0.170,0.271,0.252,0.255,0.144,0.091,east-northeast,1.7,Yes
2020/02/25,21:00,0.182,0.169,0.271,0.252,0.255,0.143,0.091,northeast,1.1,Yes
2020/02/25,21:10,0.184,0.169,0.270,0.251,0.255,0.145,0.091,east-northeast,1.7,Yes
2020/02/25,21:20,0.184,0.171,0.271,0.252,0.254,0.146,0.093,northeast,1.5,Yes
2020/02/25,21:30,0.184,0.171,0.271,0.255,0.256,0.145,0.093,northeast,1.6,Yes
2020/02/25,21:40,0.185,0.170,0.272,0.253,0.257,0.147,0.093,east,1.2,Yes
2020/02/25,21:50,0.184,0.172,0.273,0.254,0.257,0.148,0.095,east-northeast,1.6,Yes
2020/02/25,22:00,0.185,0.173,0.273,0.255,0.256,0.148,0.095,east-northeast,0.9,Yes
2020/02/25,22:10,0.185,0.172,0.273,0.257,0.258,0.148,0.096,north-northeast,1.1,Yes
2020/02/25,22:20,0.185,0.172,0.274,0.255,0.257,0.147,0.096,northwest,0.7,Yes
2020/02/25,22:30,0.185,0.173,0.274,0.254,0.257,0.147,0.096,north-northwest,1.1,Yes
2020/02/25,22:40,0.186,0.173,0.273,0.256,0.258,0.148,0.097,north,1.1,Yes
2020/02/25,22:50,0.187,0.173,0.274,0.256,0.258,0.148,0.098,north,1.4,Yes
2020/02/25,23:00,0.186,0.174,0.273,0.255,0.258,0.150,0.098,-,CALM,Yes
2020/02/25,23:10,0.187,0.174,0.274,0.256,0.260,0.149,0.100,north,1.4,Yes
2020/02/25,23:20,0.188,0.174,0.274,0.257,0.258,0.151,0.100,southwest,4.7,Yes
2020/02/25,23:30,0.187,0.174,0.274,0.255,0.259,0.150,0.100,west-northwest,3.6,Yes
2020/02/25,23:40,0.187,0.174,0.273,0.254,0.259,0.149,0.098,northwest,2.7,Yes
2020/02/25,23:50,0.187,0.175,0.275,0.255,0.259,0.150,0.099,northwest,2.9,Yes
